Weather History for KP68 - May, 2013

Change the Weather History Date:

Saturday, May 25, 2013

  Actual Average Record
Temperature  
Mean Temperature 55 °F 54 °F  
Max Temperature 78 °F 73 °F 87 °F (2001)
Min Temperature 31 °F 36 °F 22 °F (1989)
Degree Days  
Heating Degree Days 10 11  
Month to date heating degree days 309 350  
Since 1 July heating degree days 6723 7154  
Cooling Degree Days 0 0  
Month to date cooling degree days 1 0  
Year to date cooling degree days 1 0  
Growing Degree Days 4 (Base 50)    
Moisture  
Dew Point 13 °F    
Average Humidity 23    
Maximum Humidity 37    
Minimum Humidity 8    
Precipitation  
Precipitation 0.00 in 0.02 in 1.00 in (1980)
Month to date precipitation 0.50 0.60  
Year to date precipitation 2.98 4.10  
Sea Level Pressure  
Sea Level Pressure 29.78 in    
Wind  
Wind Speed 6 mph (East)    
Max Wind Speed 20 mph    
Max Gust Speed 25 mph    
T = Trace of Precipitation, MM = Missing Value Source: NWS Daily Summary

Daily Weather History Graph

Daily Weather History Graph

Search for Another Location

Airport or City:

Trip Planner

Search our weather history database for the weather conditions in past years. The results will help you decide how hot, cold, wet, or windy it might be!

Date:

Astronomy

May. 25, 2013 Rise Set
Actual Time 5:21 AM PDT 8:00 PM PDT
Civil Twilight 4:50 AM PDT 8:31 PM PDT
Nautical Twilight 4:11 AM PDT 9:11 PM PDT
Astronomical Twilight 3:27 AM PDT 9:55 PM PDT
Moon 8:53 PM PDT (5/25) 5:53 AM PDT (5/25)
Length of Visible Light 15h 41m
Length of Day
14h 38m
Waxing Gibbous, 99% of the Moon is Illuminated
May 25
Waxing Gibbous
May 31
Last Quarter
Jun 8
New
Jun 16
First Quarter
Jun 23
Full

Hourly Weather History & Observations

Time (PDT) Temp. Windchill Dew Point Humidity Pressure Visibility Wind Dir Wind Speed Gust Speed Precip Events Conditions
12:53 AM 44.1 °F 40.8 °F 10.0 °F 25% 29.76 in - South 5.8 mph - N/A   Unknown
1:53 AM 41.0 °F 35.8 °F 10.9 °F 29% 29.75 in - South 8.1 mph - N/A   Unknown
2:53 AM 39.9 °F 34.5 °F 10.0 °F 29% 29.74 in - South 8.1 mph - N/A   Unknown
3:53 AM 41.0 °F 37.1 °F 7.0 °F 25% 29.76 in - South 5.8 mph - N/A   Unknown
4:53 AM 39.9 °F 35.8 °F 9.0 °F 28% 29.77 in - SSW 5.8 mph - N/A   Unknown
5:53 AM 32.0 °F - 7.0 °F 35% 29.82 in - Calm Calm - N/A   Unknown
6:53 AM 45.0 °F 41.8 °F 10.9 °F 25% 29.80 in - South 5.8 mph - N/A   Unknown
7:53 AM 55.0 °F - 12.9 °F 19% 29.80 in - Calm Calm - N/A   Unknown
8:53 AM 60.1 °F - 10.9 °F 14% 29.81 in - North 9.2 mph - N/A   Unknown
9:53 AM 61.0 °F - 10.9 °F 14% 29.82 in - NNE 6.9 mph - N/A   Unknown
10:53 AM 64.0 °F - 9.0 °F 12% 29.83 in - Variable 3.5 mph - N/A   Unknown
11:53 AM 66.9 °F - 12.0 °F 12% 29.81 in - North - - N/A   Unknown
12:53 PM 70.0 °F - 12.0 °F 11% 29.78 in - Variable 6.9 mph - N/A   Unknown
1:53 PM 73.0 °F - 12.0 °F 10% 29.76 in - SSE 9.2 mph - N/A   Unknown
2:53 PM 73.9 °F - 12.0 °F 9% 29.74 in - Variable 4.6 mph - N/A   Unknown
3:53 PM 75.9 °F - 14.0 °F 10% 29.71 in - North 15.0 mph 20.7 mph N/A   Unknown
4:03 PM 73.9 °F - 12.9 °F 10% 29.90 in - North 9.2 mph - N/A   Unknown
4:53 PM 75.0 °F - 10.9 °F 9% 29.72 in - West 12.7 mph 24.2 mph N/A   Unknown
5:53 PM 70.0 °F - 19.0 °F 14% 29.78 in - North 6.9 mph - N/A   Unknown
6:53 PM 68.0 °F - 19.0 °F 15% 29.74 in - North 6.9 mph - N/A   Unknown
7:53 PM 66.0 °F - 19.0 °F 17% 29.73 in - NE 10.4 mph - N/A   Unknown
8:53 PM 59.0 °F - 19.0 °F 21% 29.74 in - NNE 8.1 mph - N/A   Unknown
9:53 PM 57.9 °F - 19.0 °F 22% 29.76 in - Calm Calm - N/A   Unknown
10:53 PM 53.1 °F - 19.0 °F 26% 29.79 in - Calm Calm - N/A   Unknown
11:53 PM 46.9 °F - 21.0 °F 36% 29.81 in - SE 3.5 mph - N/A   Unknown